This is the latest recevied weather packets stored in our database for station/object KE4EST. If no packets are shown the sender has not sent any weather packets the latest 10 day(s).
| Time | Temp. | Humidity | Pressure | Rain* | Wind** | Luminosity | Snow |
|---|---|---|---|---|---|---|---|
| 1777754780 | 15.56° C | 35% | 1013.6 hPa | 0 mm | - | 118 W/m² | - |
| 1777754174 | 16.11° C | 35% | 1013.2 hPa | 0 mm | - | 498 W/m² | - |
| 1777753867 | 16.11° C | 33% | 1013.6 hPa | 0 mm | - | 512 W/m² | - |
| 1777753561 | 17.22° C | 37% | 1013.5 hPa | 0 mm | - | 518 W/m² | - |
| 1777753260 | 16.67° C | 36% | 1013.2 hPa | 0 mm | - | 533 W/m² | - |
| 1777752955 | 16.67° C | 35% | 1013.3 hPa | 0 mm | - | 529 W/m² | - |
| 1777752652 | 16.67° C | 35% | 1013.3 hPa | 0 mm | - | 542 W/m² | - |
| 1777752348 | 16.67° C | 37% | 1013.5 hPa | 0 mm | - | 572 W/m² | - |
| 1777752046 | 16.67° C | 38% | 1013.3 hPa | 0 mm | - | 402 W/m² | - |
| 1777751743 | 16.11° C | 38% | 1013.2 hPa | 0 mm | - | 473 W/m² | - |
| 1777751439 | 16.11° C | 36% | 1013.5 hPa | 0 mm | - | 406 W/m² | - |
| 1777751136 | 16.11° C | 35% | 1013.3 hPa | 0 mm | - | 563 W/m² | - |
| 1777750530 | 17.78° C | 34% | 1013.5 hPa | 0 mm | - | 231 W/m² | - |
| 1777750226 | 17.78° C | 33% | 1013.1 hPa | 0 mm | - | 678 W/m² | - |
| 1777749922 | 17.22° C | 32% | 1013.3 hPa | 0 mm | - | 638 W/m² | - |
| 1777749620 | 17.22° C | 31% | 1013.2 hPa | 0 mm | - | 680 W/m² | - |
| 1777749316 | 17.22° C | 31% | 1013.2 hPa | 0 mm | - | 676 W/m² | - |
| 1777749014 | 17.22° C | 30% | 1013.1 hPa | 0 mm | - | 664 W/m² | - |
| 1777748711 | 17.22° C | 31% | 1013.2 hPa | 0 mm | - | 686 W/m² | - |
| 1777747495 | 17.78° C | 34% | 1012.9 hPa | 0 mm | - | 700 W/m² | - |
| 1777746583 | 18.89° C | 35% | 1012.9 hPa | 0 mm | - | 478 W/m² | - |
| 1777746274 | 18.89° C | 34% | 1013.1 hPa | 0 mm | - | 703 W/m² | - |
| 1777745970 | 17.78° C | 36% | 1013.2 hPa | 0 mm | - | 705 W/m² | - |
| 1777745668 | 17.78° C | 36% | 1013.1 hPa | 0 mm | - | 710 W/m² | - |
| 1777745366 | 17.22° C | 36% | 1013.2 hPa | 0 mm | - | 718 W/m² | - |
* Rain latest hour (hover to see other rain measurements)
** Current wind speed in m/s (hover to see current wind gust speed)